Regional Weather Roundup
Issued by NWS

Home | Current Version | Previous Version | Graphics & Text | Print | Product List | Glossary On
Versions: 1 2 3 4 5 6 7 8 9 10 11 12 13 14 15 16 17 18 19 20 21 22 23 24 25 26 27 28 29 30 31 32 33 34 35 36 37 38 39 40 41 42 43 44 45 46 47 48 49 50
000
ASUS45 KSLC 282110
RWRUT

UTAH REGIONAL WEATHER ROUNDUP
NATIONAL WEATHER SERVICE SALT LAKE CITY UT
200 PM MST SAT FEB 28 2015

UTZ001>011-023>025-282200-

NORTHERN UTAH

CITY           SKY/WX    TMP DP  RH WIND       PRES   REMARKS
BRIGHAM CITY   CLOUDY    46  16  30 SE8       29.71F
HILL AFB       CLOUDY    44  16  32 E8G20     29.69F
LOGAN          PTSUNNY   44  16  32 E15       29.72F
OGDEN          CLOUDY    45  18  34 NE10      29.69F
PROVO AIRPORT  PTSUNNY   39  27  60 NW14      29.68F WCI  31
SALT LAKE CITY CLOUDY    44  21  40 SE10      29.68F
VERNAL         PTSUNNY   40  19  43 SW5       29.72F
WENDOVER       CLOUDY    39  27  60 N8        29.73S WCI  34
HEBER CITY     FLURRIES  34  27  75 S3        29.70S
WEST JORDAN    CLOUDY    41  27  56 S5        29.69F

$$

UTZ012>022-026-027-282200-

SOUTHERN/CENTRAL UTAH

CITY           SKY/WX    TMP DP  RH WIND       PRES   REMARKS
BLANDING       CLOUDY    32  32 100 S8        29.84R VSB 1   WCI  25
CEDAR CITY     HVY SNOW  32  31  96 CALM      29.70R VSB 1/4
DELTA          CLOUDY    36  34  92 SW7       29.68S WCI  30
HANKSVILLE     CLOUDY    41  34  75 N10       29.73F
MILFORD        CLOUDY    37  32  82 S10       29.67S WCI  30
MOAB/CYNLANDS  CLOUDY    36  31  82 E12       29.72F WCI  28
PRICE          LGT SNOW  34  30  85 S3        29.70F FOG
ST GEORGE      CLOUDY    48  37  66 N6        29.74S
KANAB          PTSUNNY   46  23  39 SW23G29   29.73R

$$

REGIONAL REPORTS     COLORADO/ARIZONA

CITY           SKY/WX    TMP DP  RH WIND       PRES   REMARKS
CRAIG, CO      CLOUDY    38  11  32 CALM      29.72F
GRAND JUNCTION PTSUNNY   41  20  43 SE9       29.73F
RIFLE          CLOUDY    39  14  36 VRB5      29.72F
MONTROSE       LGT SNOW  30  27  88 S3        29.78S FOG
CORTEZ         LGT SNOW  35  33  92 CALM      29.78S FOG
PAGE, AZ       MOSUNNY   45  36  70 NW9       29.71S
GRAND CANYON   LGT RAIN  36  33  89 SW20G29   29.76F WCI  25
KINGMAN        CLOUDY    56  35  45 S21G26    29.75F
FLAGSTAFF      FLURRIES  36  30  79 SW22G29   29.79F WCI  25

$$

REGIONAL REPORTS    NEVADA/IDAHO/WYOMING

CITY           SKY/WX    TMP DP  RH WIND       PRES   REMARKS
LAS VEGAS, NV  MOSUNNY   61  26  26 SW21G28   29.66S
ELY            PTSUNNY   38  24  57 CALM      29.66F
ELKO           CLOUDY    37  30  75 NE9       29.70S WCI  30
POCATELLO, ID  MOSUNNY   45  18  34 NE15G21   29.76F
BURLEY         PTSUNNY   42  20  41 E8        29.76S
EVANSTON, WY   PTSUNNY   28  17  63 E16       29.72F WCI  16
ROCK SPRINGS   CLOUDY    25  13  60 NE16G25   29.78F WCI  12

$$


USA.gov is the U.S. government's official web portal to all federal, state and local government web resources and services.